Key West, FL

7:24 PM EDT on September 21, 2017 (GMT -0400)
Key West International

Weather History for KEYW - April, 2014

Change the Weather History Date:

Tuesday, April 22, 2014

  Actual Average Record
Temperature  
Mean Temperature 76 °F 77 °F  
Max Temperature 80 °F 82 °F 88 °F (1937)
Min Temperature 71 °F 72 °F 62 °F (1940)
Degree Days  
Heating Degree Days 0 0  
Month to date heating degree days 0 0  
Since 1 July heating degree days 22 73  
Cooling Degree Days 11 12  
Month to date cooling degree days 269 241  
Year to date cooling degree days 972 851  
Growing Degree Days 26 (Base 50)    
Moisture  
Dew Point 67 °F    
Average Humidity 76    
Maximum Humidity 84    
Minimum Humidity 67    
Precipitation  
Precipitation 0.00 in 0.08 in 1.83 in (1875)
Month to date precipitation 0.56 1.57  
Year to date precipitation 11.94 7.15  
Snow  
Snow 0.00 in - - ()
Month to date snowfall 0.0  
Since 1 July snowfall 0.0  
Snow Depth 0.00 in    
Sea Level Pressure  
Sea Level Pressure 29.94 in    
Wind  
Wind Speed 7 mph (NNW)    
Max Wind Speed 16 mph    
Max Gust Speed 20 mph    
Visibility 10 miles    
Events      
T = Trace of Precipitation, MM = Missing Value Source: NWS Daily Summary

Daily Weather History Graph

Daily Weather History Graph

Search for Another Location

Airport or City:

Trip Planner

Search our weather history database for the weather conditions in past years. The results will help you decide how hot, cold, wet, or windy it might be!

Date:

Astronomy

Apr. 22, 2014 Rise Set
Actual Time 6:59 AM EDT 7:52 PM EDT
Civil Twilight 6:35 AM EDT 8:15 PM EDT
Nautical Twilight 6:07 AM EDT 8:43 PM EDT
Astronomical Twilight 5:39 AM EDT 9:12 PM EDT
Moon 2:02 AM EDT (4/22) 1:34 PM EDT (4/22)
Length of Visible Light 13h 40m
Length of Day
12h 53m
Last Quarter, 46% of the Moon is Illuminated
Apr 22
Last Quarter
Apr 29
New
May 6
First Quarter
May 14
Full
May 21
Last Quarter

Hourly Weather History & Observations

Time (EDT) Temp. Heat Index Dew Point Humidity Pressure Visibility Wind Dir Wind Speed Gust Speed Precip Events Conditions
12:29 AM 72.0 °F - 66.0 °F 81% 29.99 in 10.0 mi NNW 9.2 mph - N/A   Mostly Cloudy
12:53 AM 73.0 °F - 66.0 °F 79% 29.99 in 10.0 mi NNW 6.9 mph - N/A   Mostly Cloudy
1:06 AM 73.0 °F - 66.0 °F 79% 29.98 in 10.0 mi NNW 10.4 mph - N/A   Scattered Clouds
1:36 AM 73.0 °F - 66.0 °F 79% 29.97 in 10.0 mi NNW 6.9 mph - N/A   Mostly Cloudy
1:53 AM 73.0 °F - 66.9 °F 81% 29.96 in 10.0 mi NNW 8.1 mph - N/A   Mostly Cloudy
2:53 AM 73.0 °F - 66.9 °F 81% 29.94 in 10.0 mi NW 5.8 mph - N/A   Mostly Cloudy
3:17 AM 73.0 °F - 66.9 °F 81% 29.93 in 10.0 mi NNW 4.6 mph - N/A   Scattered Clouds
3:53 AM 73.0 °F - 66.9 °F 81% 29.93 in 10.0 mi WNW 4.6 mph - N/A   Clear
4:53 AM 73.0 °F - 68.0 °F 84% 29.91 in 10.0 mi Calm Calm - N/A   Overcast
5:29 AM 72.0 °F - 66.9 °F 84% 29.92 in 10.0 mi NNE 3.5 mph - N/A   Mostly Cloudy
5:53 AM 72.0 °F - 66.9 °F 84% 29.92 in 10.0 mi Calm Calm - N/A   Scattered Clouds
6:53 AM 71.1 °F - 66.9 °F 87% 29.93 in 10.0 mi ENE 3.5 mph - N/A   Clear
7:53 AM 73.9 °F - 68.0 °F 82% 29.95 in 10.0 mi ENE 3.5 mph - N/A   Clear
8:53 AM 75.9 °F - 66.9 °F 74% 29.96 in 10.0 mi NE 5.8 mph - N/A   Clear
9:53 AM 78.1 °F - 66.9 °F 68% 29.97 in 10.0 mi Calm Calm - N/A   Scattered Clouds
10:03 AM 78.1 °F - 68.0 °F 71% 29.97 in 10.0 mi Variable 3.5 mph - N/A   Mostly Cloudy
10:53 AM 77.0 °F - 66.0 °F 69% 29.98 in 10.0 mi NNW 4.6 mph - N/A   Overcast
11:06 AM 77.0 °F - 66.0 °F 69% 29.98 in 10.0 mi Variable 3.5 mph - N/A   Scattered Clouds
11:53 AM 75.9 °F - 68.0 °F 76% 29.97 in 10.0 mi North 5.8 mph - N/A   Scattered Clouds
12:41 PM 77.0 °F - 66.0 °F 69% 29.96 in 10.0 mi NNW 11.5 mph - N/A   Mostly Cloudy
12:53 PM 77.0 °F - 68.0 °F 74% 29.96 in 10.0 mi NNW 11.5 mph - N/A   Mostly Cloudy
1:03 PM 77.0 °F - 68.0 °F 74% 29.96 in 10.0 mi NNW 10.4 mph - N/A   Scattered Clouds
1:53 PM 80.1 °F 82.7 °F 68.0 °F 67% 29.94 in 10.0 mi NNW 13.8 mph - N/A   Clear
2:53 PM 79.0 °F - 69.1 °F 72% 29.93 in 10.0 mi North 12.7 mph - N/A   Partly Cloudy
3:53 PM 77.0 °F - 66.9 °F 71% 29.92 in 10.0 mi NNW 12.7 mph - N/A   Mostly Cloudy
4:02 PM 75.9 °F - 66.9 °F 74% 29.92 in 10.0 mi NNW 15.0 mph - N/A   Overcast
4:21 PM 78.1 °F - 66.9 °F 68% 29.91 in 10.0 mi NNW 12.7 mph - N/A   Mostly Cloudy
4:53 PM 78.1 °F - 66.9 °F 68% 29.91 in 10.0 mi NNW 11.5 mph 18.4 mph N/A   Partly Cloudy
5:53 PM 75.9 °F - 66.9 °F 74% 29.91 in 10.0 mi North 10.4 mph - N/A   Partly Cloudy
6:37 PM 75.9 °F - 66.0 °F 71% 29.90 in 10.0 mi North 6.9 mph - N/A   Mostly Cloudy
6:53 PM 75.9 °F - 66.0 °F 71% 29.91 in 10.0 mi NNW 9.2 mph - N/A   Mostly Cloudy
7:16 PM 75.0 °F - 66.0 °F 73% 29.91 in 10.0 mi NNW 8.1 mph - N/A   Scattered Clouds
7:53 PM 73.9 °F - 66.0 °F 76% 29.91 in 10.0 mi NNW 6.9 mph - N/A   Clear
8:53 PM 73.9 °F - 66.0 °F 76% 29.92 in 10.0 mi NNW 6.9 mph - N/A   Partly Cloudy
9:53 PM 73.9 °F - 64.9 °F 73% 29.93 in 10.0 mi NNW 6.9 mph - N/A   Clear
10:53 PM 73.9 °F - 66.0 °F 76% 29.94 in 10.0 mi NW 4.6 mph - N/A   Clear
11:53 PM 73.0 °F - 66.0 °F 79% 29.94 in 10.0 mi NNW 3.5 mph - N/A   Clear